User: anonymous   Login
Location: ?????????
(55.6553°N, 38.9075°E)
Time: 19:18:56
(UTC+00:00)
Language:

Meteor 2-5 Rocket - Orbit

View from above orbital plane
View from above orbital plane
View from above satellite
View from above satellite

Ground track
Ground track

The orbit data is extracted from the following two-line orbital elements,

1 11608U 79095B   19346.19510048 -.00000006  00000-0 -11566-4 0  9998
2 11608  81.2151  49.8488 0055266 131.0065 229.5902 14.06151232 57687
Epoch (UTC): 12 December 2019 04:40:56
Eccentricity: 0.0055266
inclination: 81.2151°
perigee height: 832 km
apogee height: 912 km
right ascension of ascending node: 49.8488°
argument of perigee: 131.0065°
revolutions per day: 14.06151232
mean anomaly at epoch: 229.5902°
orbit number at epoch: 5768

The dashed part of the orbit path shows where the satellite is in the earth's shadow,  

DLR